| time (UTC) | temp C | wind direction | speed KPH | gust KPH | rain 1hr cm | rain 24hr cm | rain mn cm | humidity % | barometer mb |
| 20260504210021 | 12 | 58 | 0.0 | 0.0 | 0.00 | 0.36 | 0.05 | 95 | 1022.1 |
| 20260504204534 | 12 | 58 | 0.0 | 0.0 | 0.00 | 0.36 | 0.05 | 94 | 1022.0 |
| 20260504203022 | 12 | 58 | 0.0 | 0.0 | 0.00 | 0.36 | 0.05 | 94 | 1021.9 |
| 20260504201517 | 12 | 58 | 0.0 | 1.6 | 0.00 | 0.43 | 0.05 | 94 | 1021.7 |
| 20260504200015 | 12 | 58 | 0.0 | 3.2 | 0.00 | 0.43 | 0.05 | 94 | 1021.7 |
| 20260504194514 | 12 | 58 | 0.0 | 1.6 | 0.00 | 0.43 | 0.05 | 94 | 1021.6 |
| 20260504193011 | 12 | 58 | 0.0 | 0.0 | 0.00 | 0.43 | 0.05 | 94 | 1021.4 |
| 20260504191510 | 12 | 58 | 0.0 | 0.0 | 0.00 | 0.51 | 0.05 | 93 | 1021.3 |
| 20260504190010 | 12 | 58 | 0.0 | 1.6 | 0.00 | 0.51 | 0.05 | 94 | 1021.2 |
| 20260504184509 | 13 | 60 | 0.0 | 0.0 | 0.03 | 0.51 | 0.05 | 94 | 1021.2 |
| 20260504183009 | 13 | 60 | 0.0 | 0.0 | 0.03 | 0.51 | 0.05 | 94 | 1021.1 |
| 20260504181513 | 13 | 60 | 0.0 | 0.0 | 0.05 | 0.51 | 0.05 | 94 | 1020.9 |
| 20260504180009 | 13 | 60 | 0.0 | 0.0 | 0.05 | 0.51 | 0.05 | 94 | 1021.0 |
| 20260504174507 | 13 | 60 | 0.0 | 0.0 | 0.03 | 0.48 | 0.03 | 94 | 1020.9 |
| 20260504173006 | 13 | 60 | 0.0 | 0.0 | 0.03 | 0.48 | 0.03 | 93 | 1021.0 |
| 20260504171507 | 13 | 60 | 0.0 | 0.0 | 0.00 | 0.61 | 0.00 | 94 | 1021.0 |
| 20260504160108 | 12 | 60 | 0.0 | 0.0 | 0.00 | 0.64 | 0.00 | 92 | 1021.0 |
| 20260504081510 | 17 | 200 | 1.6 | 6.4 | 0.00 | 0.71 | 0.69 | 72 | 1017.1 |
| 20260504044556 | 19 | 160 | 4.8 | 14.5 | 0.00 | 0.71 | 0.69 | 65 | 1015.2 |
| 20260504043050 | 19 | 125 | 4.8 | 22.5 | 0.00 | 0.71 | 0.69 | 65 | 1015.0 |
| 20260504041546 | 18 | 136 | 6.4 | 14.5 | 0.00 | 0.71 | 0.69 | 65 | 1014.9 |
| 20260504040100 | 18 | 119 | 6.4 | 19.3 | 0.00 | 0.71 | 0.69 | 67 | 1015.0 |
| 20260504034608 | 19 | 188 | 4.8 | 14.5 | 0.00 | 0.71 | 0.69 | 67 | 1015.0 |
| 20260504033040 | 18 | 75 | 4.8 | 12.9 | 0.00 | 0.71 | 0.69 | 67 | 1015.0 |
| 20260504031539 | 18 | 184 | 8.0 | 14.5 | 0.00 | 0.71 | 0.69 | 69 | 1015.0 |
| 20260504030037 | 18 | 204 | 4.8 | 14.5 | 0.00 | 0.71 | 0.69 | 71 | 1015.1 |
| 20260504024534 | 18 | 158 | 4.8 | 16.1 | 0.00 | 0.71 | 0.69 | 72 | 1015.2 |
| 20260504023032 | 17 | 184 | 3.2 | 11.3 | 0.03 | 0.71 | 0.69 | 76 | 1015.3 |
| 20260504021528 | 17 | 167 | 8.0 | 20.9 | 0.03 | 0.71 | 0.69 | 77 | 1015.4 |
| 20260504020027 | 17 | 121 | 3.2 | 11.3 | 0.03 | 0.71 | 0.69 | 81 | 1015.3 |
| 20260504014525 | 17 | 171 | 4.8 | 19.3 | 0.13 | 0.71 | 0.69 | 83 | 1015.2 |
| 20260504013030 | 16 | 115 | 3.2 | 12.9 | 0.10 | 0.71 | 0.66 | 86 | 1015.0 |
| 20260504011523 | 16 | 223 | 8.0 | 16.1 | 0.13 | 0.71 | 0.66 | 88 | 1015.1 |
| 20260504010022 | 16 | 215 | 3.2 | 20.9 | 0.15 | 0.71 | 0.66 | 86 | 1015.0 |
| 20260504004520 | 16 | 150 | 4.8 | 16.1 | 0.05 | 0.61 | 0.56 | 87 | 1014.9 |
| 20260504003017 | 16 | 198 | 4.8 | 14.5 | 0.05 | 0.61 | 0.56 | 87 | 1014.7 |
| 20260504001515 | 16 | 206 | 6.4 | 16.1 | 0.00 | 0.58 | 0.51 | 89 | 1014.6 |
| 20260504000012 | 16 | 160 | 3.2 | 11.3 | 0.00 | 0.58 | 0.51 | 91 | 1014.5 |
| 20260503234509 | 15 | 191 | 1.6 | 12.9 | 0.00 | 0.58 | 0.51 | 92 | 1014.4 |
| 20260503233005 | 15 | 122 | 0.0 | 11.3 | 0.00 | 0.58 | 0.51 | 93 | 1014.2 |
| 20260503231505 | 15 | 216 | 1.6 | 6.4 | 0.05 | 0.58 | 0.51 | 93 | 1014.1 |
| 20260503230000 | 15 | 226 | 1.6 | 4.8 | 0.15 | 0.58 | 0.51 | 93 | 1013.8 |
| 20260503224559 | 14 | 237 | 0.0 | 3.2 | 0.15 | 0.58 | 0.51 | 93 | 1013.6 |
| 20260503223058 | 14 | 249 | 0.0 | 11.3 | 0.15 | 0.58 | 0.51 | 92 | 1013.4 |
| 20260503221557 | 15 | 221 | 0.0 | 6.4 | 0.13 | 0.53 | 0.48 | 92 | 1013.4 |
| 20260503220055 | 15 | 232 | 4.8 | 12.9 | 0.03 | 0.43 | 0.38 | 92 | 1013.0 |
| 20260503214601 | 15 | 228 | 1.6 | 6.4 | 0.03 | 0.43 | 0.38 | 91 | 1012.7 |
| 20260503213052 | 14 | 249 | 1.6 | 6.4 | 0.03 | 0.43 | 0.38 | 91 | 1012.6 |
| 20260503211554 | 14 | 209 | 0.0 | 6.4 | 0.00 | 0.43 | 0.36 | 91 | 1012.6 |